[[{"header":{"parameterUnit":"m.s-1","parameterCategory":1,"la1":30.2992,"la2":30.254,"lo1":-89.0895,"lo2":-89.0443,"dy":0.0025,"dx":0.0025,"nx":19,"ny":19,"refTime":"2026-03-20T09:00:00:Z","depth":0,"parameterNumber":2,"parameterNumberName":"U-component_of_WINDS"},"data":[0,0,0,2.9773,2.9777,2.9966,2.9967,3.0214,3.0216,0,0,0,0,0,0,0,0,0,0,0,2.9722,2.9724,2.9773,2.9778,2.9966,2.9967,3.0213,3.0216,0,0,0,0,0,0,0,0,0,0,0,2.9721,2.9723,2.9726,2.9778,2.9966,2.9967,3.0213,3.0068,0,0,0,0,0,0,0,0,0,0,2.9884,2.9842,2.9723,2.9726,2.9779,2.9966,2.9967,3.0061,3.0077,3.0131,0,3.0181,0,3.0203,3.0233,3.0234,0,0,0,2.9774,2.9829,2.9875,2.9726,2.9781,2.9966,2.988,3.007,3.0088,3.0152,3.0185,3.0194,3.0207,3.0235,3.0236,3.0559,3.0561,0,0,2.9763,2.9759,2.9862,2.9887,2.986,2.9874,2.9886,3.0081,3.0116,3.0186,3.02,3.0211,3.0236,3.0238,3.0558,3.056,0,0,0,2.9736,2.9752,2.9793,2.9877,2.9911,2.988,2.9893,3.0107,3.0121,3.0202,3.0214,3.0238,3.0241,3.0556,3.0558,3.0635,0,0,0,2.9729,2.9736,2.9789,2.9788,2.9907,3.0012,2.9915,3.0107,3.013,3.0213,3.0238,3.0243,3.0554,3.0557,3.0629,3.0672,0,0,0,2.9708,2.9733,2.9762,2.9787,2.9868,3.0009,3.0034,3.0112,3.0137,3.0234,3.0244,3.0553,3.0557,3.0624,3.0663,3.0753,0,0,0,2.9684,2.983,2.9763,2.9931,2.9867,3.0056,3.0032,3.0174,3.0267,3.0239,3.0554,3.0558,3.0622,3.0658,3.0747,3.0826,3.0859,0,0,2.9865,2.9852,2.995,2.9896,3.0096,3.0027,3.0238,3.0328,3.0341,3.0485,3.0493,3.0631,3.0663,3.0752,3.1051,3.1077,0,0,0,3.0006,3.0077,3.0131,3.0218,3.029,3.0353,3.0411,3.0444,3.0566,3.0415,3.0689,3.0708,3.0761,3.0798,3.0821,3.0864,3.0576,3.0576,3.0575,3.0256,3.0265,3.0427,3.0458,3.0543,3.0599,3.0668,3.0721,3.0707,3.0771,3.0813,3.0994,3.1038,3.1055,3.11,3.0858,3.0858,3.0858,3.0859,3.0521,3.0621,3.0595,3.0743,3.0751,3.0875,3.0934,3.0918,3.1033,3.0964,3.101,3.0931,3.1083,3.1123,3.0864,3.0863,3.0863,3.0862,3.0862,3.0684,3.0733,3.0769,3.0894,3.0989,3.1014,3.1125,3.1128,3.1132,3.1179,3.1221,3.122,3.1216,3.1199,3.12,3.12,3.1201,3.1201,3.1201,3.0837,3.0876,3.0969,3.1055,3.1109,3.1181,3.1237,3.129,3.1349,3.1343,3.1343,3.1319,3.1098,3.104,3.1211,3.1209,3.1208,3.1207,3.1207,3.1099,3.1039,3.1183,3.1237,3.1336,3.1427,3.143,3.1537,3.1581,3.1635,3.1601,3.1437,3.1423,3.1406,3.1358,3.1601,3.1601,3.1601,3.1601,3.1234,3.1227,3.1372,3.1458,3.1543,3.1558,3.1717,3.176,3.1796,3.1823,3.1788,3.1726,3.1708,3.1704,3.168,3.1635,3.1944,3.1944,3.1944,3.1393,3.1394,3.1529,3.1563,3.1639,3.1703,3.1851,3.1949,3.1977,3.1958,3.1843,3.1829,3.1728,3.1696,3.1673,3.1635,3.1553,0,0]},{"header":{"parameterUnit":"m.s-1","parameterCategory":1,"la1":30.2992,"la2":30.254,"lo1":-89.0895,"lo2":-89.0443,"dy":0.0025,"dx":0.0025,"nx":19,"ny":19,"refTime":"2026-03-20T09:00:00:Z","depth":0,"parameterNumber":3,"parameterNumberName":"V-component_of_WINDS"},"data":[0,0,0,1.088,1.0881,1.0946,1.0946,1.1034,1.1035,0,0,0,0,0,0,0,0,0,0,0,1.0864,1.0864,1.0879,1.0881,1.0946,1.0946,1.1034,1.1035,0,0,0,0,0,0,0,0,0,0,0,1.0863,1.0864,1.0865,1.0881,1.0946,1.0946,1.1034,1.0983,0,0,0,0,0,0,0,0,0,0,1.0919,1.0908,1.0864,1.0865,1.0882,1.0946,1.0946,1.098,1.0986,1.1007,0,1.1026,0,1.1032,1.1041,1.1041,0,0,0,1.0879,1.0903,1.0917,1.0865,1.0882,1.0945,1.0916,1.0984,1.099,1.1014,1.1027,1.103,1.1033,1.1042,1.1042,1.1166,1.1167,0,0,1.0875,1.0878,1.0913,1.0922,1.0912,1.0914,1.0918,1.0987,1.1002,1.1028,1.1032,1.1035,1.1042,1.1043,1.1166,1.1167,0,0,0,1.0867,1.0875,1.0887,1.0918,1.0929,1.0916,1.0921,1.0999,1.1002,1.1033,1.1036,1.1043,1.1044,1.1165,1.1166,1.1201,0,0,0,1.0864,1.087,1.0886,1.0888,1.0928,1.0965,1.093,1.0998,1.1005,1.1035,1.1043,1.1045,1.1164,1.1166,1.1199,1.1218,0,0,0,1.0858,1.0869,1.088,1.0888,1.0916,1.0964,1.0972,1.0999,1.1007,1.1041,1.1045,1.1164,1.1165,1.1196,1.1214,1.1251,0,0,0,1.0853,1.0912,1.088,1.0946,1.0915,1.0985,1.0971,1.1023,1.1057,1.1043,1.1164,1.1166,1.1196,1.1212,1.1248,1.1282,1.1296,0,0,1.0928,1.0921,1.0959,1.0933,1.1008,1.0975,1.1055,1.1085,1.1087,1.114,1.1143,1.1199,1.1214,1.125,1.1373,1.1385,0,0,0,1.0984,1.1012,1.1031,1.1062,1.1085,1.1105,1.1122,1.1132,1.1176,1.1114,1.1222,1.1231,1.1252,1.1268,1.1277,1.1295,1.1173,1.1173,1.1173,1.1095,1.1092,1.1155,1.1159,1.1189,1.1204,1.1228,1.1244,1.1235,1.126,1.1276,1.1351,1.137,1.1377,1.1395,1.1293,1.1293,1.1293,1.1293,1.1205,1.1243,1.1225,1.128,1.1276,1.1322,1.1337,1.1328,1.137,1.1339,1.1358,1.1325,1.1389,1.1405,1.1296,1.1295,1.1295,1.1295,1.1295,1.1278,1.1296,1.1305,1.1348,1.1381,1.1382,1.1422,1.1418,1.1414,1.1432,1.1448,1.1447,1.1446,1.144,1.144,1.144,1.144,1.144,1.1441,1.135,1.136,1.1394,1.142,1.1437,1.146,1.1473,1.149,1.1508,1.1502,1.1502,1.1488,1.1396,1.1372,1.1445,1.1444,1.1443,1.1443,1.1443,1.1464,1.1436,1.1489,1.1506,1.1535,1.1567,1.1559,1.1594,1.1607,1.1627,1.1608,1.154,1.1533,1.1526,1.1506,1.1609,1.1609,1.1609,1.1609,1.1525,1.152,1.1571,1.1599,1.1625,1.1622,1.1681,1.169,1.1695,1.1703,1.1687,1.1661,1.1653,1.165,1.164,1.1622,1.1752,1.1752,1.1752,1.1595,1.1591,1.1642,1.1645,1.1666,1.1684,1.1738,1.177,1.1771,1.1758,1.1709,1.1703,1.166,1.1647,1.1635,1.1619,1.1586,0,0]}]]